Regional Weather Roundup
Issued by NWS

Home | Current Version | Previous Version | Text Only | Print | Product List | Glossary On
Versions: 1 2 3 4 5 6 7 8 9 10 11 12 13 14 15 16 17 18 19 20 21 22 23 24 25 26 27 28 29 30 31 32 33 34 35 36 37 38 39 40 41 42 43 44 45 46 47 48 49 50
000
ASUS43 KLSX 211657
RWRMO

WEATHER SUMMARY FOR MISSOURI
NATIONAL WEATHER SERVICE SPRINGFIELD MO
1200 PM CDT MON AUG 21 2017

NOTE: "FAIR" INDICATES FEW OR NO CLOUDS BELOW 12,000 FEET WITH NO
       SIGNIFICANT WEATHER AND/OR OBSTRUCTIONS TO VISIBILITY.
       CURRENT SKY AND/OR WEATHER CONDITIONS ARE NOT AVAILABLE FOR
       CHILLICOTHE AND FARMINGTON.

MOZ001>031-035>038-043-044-053-054-211800-
...NORTHERN AND WESTERN MISSOURI...

CITY           SKY/WX    TMP DP  RH WIND       PRES   REMARKS
KANSAS CTY INT NOT AVBL
LEE`S SUMMIT   CLOUDY    75  72  90 E3        30.07F
ST JOSEPH      CLOUDY    80  75  84 E12       30.05F
CHILLICOTHE      N/A     73  72  96 S13       30.11R
KIRKSVILLE     TSTM      73  72  94 E8        30.10F VSB 1/2

$$
MOZ066>068-077>081-088>096-101>105-211800-
...SOUTHWEST MISSOURI...

CITY           SKY/WX    TMP DP  RH WIND       PRES   REMARKS
SPRINGFIELD    SUNNY     86  74  67 S10       30.12F HX  94
JOPLIN         SUNNY     90  76  63 SW14      30.09F HX 101
BRANSON        MOSUNNY   88  70  55 S9        30.15F HX  92

$$
MOZ032>034-039>042-045>050-055>058-069>072-211800-
...CENTRAL MISSOURI...

CITY           SKY/WX    TMP DP  RH WIND       PRES   REMARKS
COLUMBIA       NOT AVBL
JEFFERSON CITY MOSUNNY   88  76  67 W8        30.08F HX  99
ROLLA          SUNNY     88  75  65 SW8       30.13F HX  97
SEDALIA        CLOUDY    86  78  77 SW9       30.10S HX  98
WARRENSBURG    CLOUDY    77  72  83 S5        30.09S

$$
MOZ051-052-059>065-211800-
...EAST CENTRAL MISSOURI...

CITY           SKY/WX    TMP DP  RH WIND       PRES   REMARKS
ST LOUIS INTL  MOSUNNY   92  76  59 W7        30.09F HX 104

$$
MOZ072>076-082>087-097>100-106>115-211800-
...SOUTH CENTRAL AND SOUTHEAST MISSOURI...

CITY           SKY/WX    TMP DP  RH WIND       PRES   REMARKS
CAPE GIRARDEAU SUNNY     89  77  67 VRB3      30.12S HX 101
POPLAR BLUFF   SUNNY     89  80  74 VRB3      30.12F HX 106
WEST PLAINS    SUNNY     88  72  58 SW10      30.16F HX  94

$$



USA.gov is the U.S. government's official web portal to all federal, state and local government web resources and services.